User: anonymous   Login
Location: Bednik
(45.3500°N, 16.3833°E)
Time: 13:49:38
(UTC+00:00)
Language:

Cosmos 1821 Rocket - Orbit

View from above orbital plane
View from above orbital plane
View from above satellite
View from above satellite

Ground track
Ground track

The orbit data is extracted from the following two-line orbital elements,

1 17526U 87017B   20294.26944044 +.00000046 +00000-0 +30841-4 0  9994
2 17526 082.9053 207.6376 0041034 141.5316 218.8779 13.76878311674378
Epoch (UTC): 20 October 2020 06:27:59
Eccentricity: 0.0041034
inclination: 82.9053°
perigee height: 945 km
apogee height: 1005 km
right ascension of ascending node: 207.6376°
argument of perigee: 141.5316°
revolutions per day: 13.76878311
mean anomaly at epoch: 218.8779°
orbit number at epoch: 67437

The dashed part of the orbit path shows where the satellite is in the earth's shadow,  

DLR